Location: *
(36.4167°N, 25.4500°E)
Time: 19:18:23
(UTC+00:00)

Daily predictions for brighter satellites

Satellite Brightness Start Highest point End
(mag) Time Altitude Azimuth Time Altitude Azimuth Time Altitude Azimuth
CZ-4C R/B 3.2 15:53:40 10° NNW 16:00:55 54° NE 16:09:00 10° SE
BREEZE M DEB (TANK) 4.2 16:03:44 10° NNE 16:04:33 11° NNE 16:05:29 10° NE
Cosmos 1758 3.7 16:01:53 10° SSW 16:05:50 69° W 16:09:48 10° N
Cosmos 1486 Rocket 4.0 16:00:58 10° NNW 16:06:17 71° ENE 16:11:35 10° SSE
Cosmos 1726 Rocket 3.8 16:08:18 10° SSE 16:12:33 49° E 16:16:47 10° NNE
ASTEX 1 3.6 16:11:35 10° NNE 16:16:23 48° E 16:21:10 10° SSE
Okean-O 2.8 16:12:01 10° S 16:16:25 79° WSW 16:20:52 10° NNW
OAO 2 Rocket 3.5 16:15:34 10° WSW 16:20:49 75° S 16:25:47 12° E
Cosmos 968 Rocket 3.6 16:17:07 10° N 16:22:18 54° ENE 16:27:25 10° SSE
Cosmos 2058 Rocket 3.5 16:18:15 10° SSE 16:22:18 39° E 16:26:22 10° NNE
Ariane Rocket 4.3 16:19:11 10° ESE 16:22:45 20° ENE 16:26:20 10° NNE
OAO 3 Rocket 3.5 16:20:31 10° WSW 16:25:22 60° SSE 16:29:38 13° E
Cosmos 1939 Rocket 4.3 16:22:49 10° ESE 16:25:30 18° ENE 16:28:13 10° NNE
Cosmos 2228 3.0 16:21:40 10° S 16:26:03 77° E 16:30:25 10° N
Cosmos 1242 Rocket 3.7 16:23:27 10° NNE 16:26:27 23° ENE 16:29:27 10° SE
Cosmos 1821 Rocket 3.9 16:20:28 10° N 16:26:34 70° E 16:32:42 10° SSE
Shenzhou-11 Module 3.2 16:25:18 10° W 16:27:49 30° NNW 16:30:03 12° NE
Cosmos 1844 Rocket 3.1 16:22:37 10° SSW 16:28:14 67° WNW 16:33:52 10° NNE
Nadezhda 3 Rocket 4.2 16:22:13 10° S 16:28:27 81° W 16:34:48 10° N
Meteor 1-16 Rocket 4.2 16:23:37 10° S 16:29:11 61° E 16:34:35 10° NNE
Abrixas rocket 3.2 16:26:46 10° SSW 16:29:24 26° SE 16:31:02 17° E
Meteor 2-10 4.2 16:26:17 10° SSE 16:31:11 45° E 16:35:59 10° NNE
Cosmos 1992 Rocket 4.4 16:26:24 10° SSW 16:31:35 67° WNW 16:36:48 10° NNE
Lacrosse 5 rocket 2.2 16:31:54 10° NNW 16:35:15 28° NE 16:37:20 18° E
Cosmos 1503 Rocket 3.9 16:31:46 10° NNW 16:36:56 73° ENE 16:42:05 10° SSE
Cosmos 921 Rocket 3.0 16:33:11 10° SSW 16:37:41 84° ESE 16:42:12 10° NNE
CZ-4 R/B 4.3 16:35:54 10° SSE 16:40:00 83° ENE 16:44:08 10° N
Cosmos 1535 Rocket 4.5 16:35:23 10° N 16:41:30 58° E 16:47:30 10° SSE
Cosmos 1934 Rocket 4.1 16:35:17 10° N 16:41:32 58° E 16:47:46 10° SSE
Meteor 1-21 Rocket 4.5 16:35:56 10° N 16:41:49 80° W 16:47:33 10° S
Cosmos 1908 3.7 16:38:40 10° SSE 16:42:16 37° E 16:45:54 10° NNE
CZ-4 R/B 1.4 16:39:58 10° SSE 16:44:04 88° ENE 16:48:16 10° NNW
Cosmos 2278 Rocket 2.7 16:39:06 10° S 16:44:12 36° ESE 16:49:21 10° NE
YAOGAN 6 2.5 16:41:07 10° SSE 16:44:48 88° ENE 16:48:29 10° N
COSMO-SKYMED 1 3.4 16:41:51 10° N 16:46:06 54° WNW 16:50:18 10° SSW
Cosmos 1844 4.4 16:42:00 10° SW 16:47:35 59° WNW 16:53:17 10° NNE
Cosmos 1328 4.0 16:46:12 10° N 16:50:02 46° E 16:53:50 10° SSE
USA 116 3.9 16:53:45 10° N 16:56:50 55° WNW 17:00:07 10° SSW
Cosmos 1953 Rocket 3.9 16:54:58 10° NNW 16:59:18 66° W 17:03:34 10° S
ATLAS 5 CENTAUR R/B 4.2 16:56:55 10° W 16:59:43 17° NW 17:02:42 10° N
Cosmos 292 Rocket 3.7 16:57:37 10° SSW 17:02:21 86° WNW 17:07:08 10° NNE
CSL-04 Rocket 4.1 17:07:03 10° S 17:12:34 66° WSW 17:18:04 10° NNW
NOAA 11 4.1 17:10:01 10° SSE 17:15:27 76° ENE 17:20:54 10° N
CZ-2D R/B 3.3 17:17:26 10° S 17:21:16 79° W 17:25:07 10° NNW
EO 1 Delta rocket 4.3 17:20:26 10° S 17:25:08 60° W 17:29:43 10° NNW
SL-4 R/B 1.7 17:22:40 10° NW 17:26:07 74° NNW 17:26:07 74° NNW
YAOGAN 1 4.4 17:30:56 10° SSW 17:34:45 31° W 17:38:37 10° NW
Cosmos 1833 Rocket 3.4 17:29:34 10° N 17:33:52 35° NE 17:33:52 35° NE
ADEOS Rocket 3.5 17:37:21 10° NNE 17:44:52 55° E 17:51:50 10° S
IRS-1A Rocket 4.3 17:43:46 19° S 17:47:48 76° WSW 17:53:20 10° NNW
MOS 1 4.1 17:47:45 56° SSE 17:49:01 83° ENE 17:54:43 10° NNW
CZ-4C R/B 4.5 17:42:38 10° NW 17:49:27 35° WSW 17:56:48 10° S
COSMOS 2406 3.4 17:44:53 10° NNW 17:50:37 71° WSW 17:52:47 39° S
Cosmos 2082 Rocket 3.5 17:47:06 10° N 17:50:13 27° NNE 17:50:13 27° NNE
Ariane Rocket 4.0 17:56:30 10° S 18:01:20 45° W 18:06:13 10° NNW
USA 238 DEB 3.6 17:56:26 10° SW 18:03:05 81° WNW 18:05:37 42° NNE
USA 238 3.6 17:56:32 10° SW 18:03:11 81° WNW 18:05:38 43° NNE
OAO 2 Rocket 3.9 18:00:20 10° W 18:04:44 57° WSW 18:04:44 57° WSW
OAO 3 Rocket 4.1 18:03:52 10° W 18:07:26 47° WSW 18:07:26 47° WSW
USA 234 3.1 18:13:46 87° ENE 18:13:52 88° SE 18:20:25 10° SW
Lacrosse 5 rocket 3.5 18:10:57 10° WNW 18:13:02 23° W 18:13:02 23° W
H-2A R/B 4.1 17:11:07 10° WSW 18:15:11 65° S 18:18:07 53° ESE
H-2A R/B 3.9 18:28:31 23° NNW 18:28:31 23° NNW 18:30:28 10° NNW
Cosmos 2278 Rocket 4.0 18:23:27 10° WSW 18:28:17 28° WNW 18:33:10 10° N
NOSS 3-2 (A) 4.1 18:24:44 10° SW 18:28:50 46° WSW 18:28:50 46° WSW
Lacrosse 5 4.3 18:35:01 10° NNW 18:35:56 15° NNW 18:35:56 15° NNW
